Flag for U.S.A. Weather past 2 weeks in Warminster Township, Pennsylvania, U.S.A.

Now
65 °F

Clear.


Feels Like: 65 °F
Forecast: 61 / 81 °F
Wind: 6 mph from North

Location: Doylestown Airport

Current Time: Jul 25, 2014 at 12:20:02 AM

Latest Report: Jul 24, 2014 at 11:54 PM


Visibility: 10 mi

Pressure: 29.93 "Hg

Humidity: 66%

Dew point: 53 °F

Location of Warminster TownshipLocation

Historic Weather in Warminster Township — Graph

°F

Warminster Township temperature yesterday

Maximum temperature yesterday: 82 °F (at 3:54 PM)
Minimum temperature yesterday: 64 °F (at 6:54 AM)
Average temperature yesterday: 72 °F

Past Weeks' High & Low Weather Summary

 TemperatureHumidityPressure
High89 °F (Jul 23, 3:54 PM)100% (Jul 11, 1:54 AM)30.23 "Hg (Jul 11, 1:54 AM)
Low59 °F (Jul 18, 1:54 AM)40% (Jul 17, 5:54 PM)29.73 "Hg (Jul 15, 2:54 PM)
Average73 °F76%30.02 "Hg
* Reported Jul 9 10:54 PM — Jul 24 10:54 PM, Warminster Township, Weather by CustomWeather, © 2014

Note: Actual official high and low records may vary slightly from our data, if they occured in-between our weather recording intervals... More about our weather records

Advertising

Warminster Township weather history for previous 24 hours

 ConditionsComfort  
Time TempWeatherWind HumidityBarometerVisibility
10:54 PM
Jul 24
66 °FClear.6 mph65%29.92 "Hg10 mi
9:54 PM68 °FClear.6 mph61%29.91 "Hg10 mi
8:54 PM70 °FSunny.6 mph61%29.89 "Hg10 mi
7:54 PM73 °FPassing clouds.3 mph55%29.88 "Hg10 mi
6:54 PM75 °FSunny.6 mph48%29.86 "Hg10 mi
5:54 PM80 °FPartly sunny.7 mph41%29.85 "Hg10 mi
4:54 PM78 °FScattered clouds.8 mph46%29.85 "Hg10 mi
3:54 PM82 °FSunny.8 mph41%29.86 "Hg10 mi
2:54 PM78 °FPartly sunny.9 mph50%29.86 "Hg10 mi
1:54 PM80 °FPassing clouds.8 mph47%29.87 "Hg10 mi
12:54 PM77 °FSunny.8 mph56%29.89 "Hg10 mi
11:54 AM72 °FSunny.9 mph64%29.89 "Hg10 mi
10:54 AM72 °FSunny.7 mph68%29.89 "Hg10 mi
9:54 AM73 °FSunny.6 mph74%29.87 "Hg10 mi
8:54 AM70 °FSunny.10 mph76%29.86 "Hg10 mi
7:54 AM68 °FPassing clouds.8 mph87%29.87 "Hg10 mi
6:54 AM64 °FSunny.7 mph100%29.85 "Hg10 mi
5:54 AM65 °FLight rain. Passing clouds.6 mph100%29.84 "Hg10 mi
4:54 AM66 °FPassing clouds.5 mph100%29.83 "Hg10 mi
3:54 AM66 °FOvercast.5 mph100%29.83 "Hg10 mi
2:54 AM66 °FClear.5 mph100%29.82 "Hg10 mi
1:54 AM68 °FClear.3 mph100%29.84 "Hg10 mi
12:54 AM69 °FClear.No wind100%29.83 "Hg10 mi
Weather by CustomWeather, © 2014

See weather overviewHow to use our weather pages